Location: Sternwarte ZA, Rosenfeld-Brittheim
(48.2889°N, 8.6789°E)
Time: 20:25:50
(UTC+02:00)

ISS - Pass Details

Date: 19 July 2019
Orbit: 409 x 418 km, 51.6° (Epoch: 20 July)

Event Time Altitude Azimuth Distance (km) Brightness Sun altitude
Rises 02:15:32 0° 289° (WNW) 2,350 0.1 -20.1°
Reaches altitude 10° 02:17:39 10° 293° (WNW) 1,485 -0.8 -20.0°
Maximum altitude 02:20:57 58° 14° (NNE) 487 -3.2 -19.9°
Drops below altitude 10° 02:24:13 10° 95° (E) 1,478 -0.9 -19.8°
Sets 02:26:19 0° 99° (E) 2,336 0.1 -19.7°
